^^
No Wait Weather (KNEBELLE1) Station Historical Data
Daily Summary for May 23, 2019 Units:  English    Metric   Both
Daily Weekly Monthly Yearly Custom
  High: Low: Average:
Temperature: 67.8 °F 46.7 °F 57.7 °F
Dew Point: 54.89 °F 42.43 °F 47.6 °F
Humidity: 94% 41% 71%
Wind Speed: 6mph 0mph 0.2mph
Wind Gust: 14mph - -
Wind- - ENE
Pressure: 30.04 in 29.77 in -
Precipitation: 0.39 in    
Historical Graphs
 
 
Tabular Data for May 23, 2019
Time Temperature Dew Point Pressure Wind Wind Speed Wind Gust Humidity Rainfall Rate (Hourly) solar
00:04 56.3 °F 43.87 °F 29.78 in Calm     63% 0 in WeatherCatV3.04B91 W/m2
00:09 56.5 °F 43.64 °F 29.78 in Calm     62% 0 in WeatherCatV3.04B91 W/m2
00:14 56.6 °F 43.73 °F 29.77 in Calm     62% 0 in WeatherCatV3.04B91 W/m2
00:19 56.5 °F 43.64 °F 29.77 in Calm     62% 0 in WeatherCatV3.04B91 W/m2
00:24 56.5 °F 43.64 °F 29.77 in Calm     62% 0 in WeatherCatV3.04B91 W/m2
00:29 56.3 °F 43.45 °F 29.78 in Calm     62% 0 in WeatherCatV3.04B91 W/m2
00:34 56 °F 43.58 °F 29.78 in Calm     63% 0 in WeatherCatV3.04B91 W/m2
00:39 55.7 °F 43.71 °F 29.78 in Calm     64% 0 in WeatherCatV3.04B91 W/m2
00:44 55.4 °F 43.83 °F 29.80 in Calm     65% 0 in WeatherCatV3.04B91 W/m2
00:49 55.1 °F 43.55 °F 29.80 in Calm     65% 0 in WeatherCatV3.04B91 W/m2
00:54 55 °F 43.85 °F 29.80 in Calm     66% 0 in WeatherCatV3.04B91 W/m2
00:59 54.8 °F 43.66 °F 29.80 in Calm     66% 0 in WeatherCatV3.04B91 W/m2
01:04 54.5 °F 43.77 °F 29.80 in Calm     67% 0 in WeatherCatV3.04B91 W/m2
01:09 54.4 °F 43.67 °F 29.80 in Calm     67% 0 in WeatherCatV3.04B91 W/m2
01:14 54.4 °F 43.67 °F 29.80 in Calm     67% 0 in WeatherCatV3.04B91 W/m2
01:19 54.4 °F 43.67 °F 29.80 in Calm     67% 0 in WeatherCatV3.04B91 W/m2
01:24 54.1 °F 43.77 °F 29.80 in Calm     68% 0 in WeatherCatV3.04B91 W/m2
01:29 53.9 °F 43.58 °F 29.81 in Calm     68% 0 in WeatherCatV3.04B91 W/m2
01:34 53.6 °F 43.3 °F 29.81 in Calm     68% 0 in WeatherCatV3.04B91 W/m2
01:39 53.5 °F 43.58 °F 29.81 in Calm     69% 0 in WeatherCatV3.04B91 W/m2
01:44 53.2 °F 43.67 °F 29.80 in Calm     70% 0 in WeatherCatV3.04B91 W/m2
01:49 53.1 °F 43.58 °F 29.80 in Calm     70% 0 in WeatherCatV3.04B91 W/m2
01:54 52.8 °F 43.66 °F 29.80 in Calm     71% 0 in WeatherCatV3.04B91 W/m2
01:59 52.5 °F 43.74 °F 29.79 in Calm     72% 0 in WeatherCatV3.04B91 W/m2
02:04 52.2 °F 44.17 °F 29.79 in Calm     74% 0 in WeatherCatV3.04B91 W/m2
02:09 52 °F 43.97 °F 29.79 in Calm     74% 0 in WeatherCatV3.04B91 W/m2
02:14 51.7 °F 44.03 °F 29.79 in Calm     75% 0 in WeatherCatV3.04B91 W/m2
02:19 51.4 °F 44.09 °F 29.79 in Calm     76% 0 in WeatherCatV3.04B91 W/m2
02:24 51 °F 44.38 °F 29.79 in Calm     78% 0 in WeatherCatV3.04B91 W/m2
02:29 50.8 °F 44.19 °F 29.81 in Calm     78% 0 in WeatherCatV3.04B91 W/m2
02:34 50.7 °F 44.43 °F 29.81 in Calm     79% 0 in WeatherCatV3.04B91 W/m2
02:39 50.4 °F 44.47 °F 29.81 in Calm     80% 0 in WeatherCatV3.04B91 W/m2
02:44 50.1 °F 44.17 °F 29.82 in Calm     80% 0 in WeatherCatV3.04B91 W/m2
02:49 49.8 °F 44.21 °F 29.82 in Calm     81% 0 in WeatherCatV3.04B91 W/m2
02:54 49.6 °F 44.01 °F 29.82 in Calm     81% 0 in WeatherCatV3.04B91 W/m2
02:59 49.4 °F 44.14 °F 29.83 in Calm     82% 0 in WeatherCatV3.04B91 W/m2
03:04 49.1 °F 44.16 °F 29.83 in Calm     83% 0 in WeatherCatV3.04B91 W/m2
03:09 48.9 °F 43.97 °F 29.83 in Calm     83% 0 in WeatherCatV3.04B91 W/m2
03:14 48.9 °F 44.28 °F 29.84 in Calm     84% 0 in WeatherCatV3.04B91 W/m2
03:19 48.9 °F 44.28 °F 29.84 in Calm     84% 0 in WeatherCatV3.04B91 W/m2
03:24 48.9 °F 44.28 °F 29.84 in Calm     84% 0 in WeatherCatV3.04B91 W/m2
03:29 49.1 °F 44.48 °F 29.86 in Calm     84% 0 in WeatherCatV3.04B91 W/m2
03:34 49.1 °F 44.48 °F 29.86 in Calm   3 mph 84% 0 in WeatherCatV3.04B91 W/m2
03:39 49.4 °F 44.77 °F 29.86 in Calm   3 mph 84% 0 in WeatherCatV3.04B91 W/m2
03:44 49.6 °F 44.65 °F 29.86 in Calm   3 mph 83% 0 in WeatherCatV3.04B91 W/m2
03:49 49.8 °F 44.85 °F 29.86 in Calm     83% 0 in WeatherCatV3.04B91 W/m2
03:54 50.1 °F 44.82 °F 29.86 in Calm     82% 0 in WeatherCatV3.04B91 W/m2
03:59 50.1 °F 44.82 °F 29.87 in Calm     82% 0 in WeatherCatV3.04B91 W/m2
04:04 50.2 °F 44.6 °F 29.87 in Calm     81% 0 in WeatherCatV3.04B91 W/m2
04:09 50.1 °F 44.5 °F 29.87 in Calm     81% 0 in WeatherCatV3.04B91 W/m2
04:14 50.1 °F 44.5 °F 29.86 in Calm     81% 0 in WeatherCatV3.04B91 W/m2
04:19 49.9 °F 44.3 °F 29.86 in Calm     81% 0 in WeatherCatV3.04B91 W/m2
04:24 49.8 °F 44.21 °F 29.86 in Calm     81% 0 in WeatherCatV3.04B91 W/m2
04:29 49.4 °F 43.82 °F 29.87 in Calm     81% 0 in WeatherCatV3.04B91 W/m2
04:34 49.1 °F 43.84 °F 29.87 in Calm     82% 0 in WeatherCatV3.04B91 W/m2
04:39 48.8 °F 43.87 °F 29.87 in Calm     83% 0 in WeatherCatV3.04B91 W/m2
04:44 48.5 °F 43.58 °F 29.89 in Calm     83% 0 in WeatherCatV3.04B91 W/m2
04:49 48.3 °F 43.69 °F 29.89 in Calm     84% 0 in WeatherCatV3.04B91 W/m2
04:54 48.2 °F 43.59 °F 29.89 in Calm     84% 0 in WeatherCatV3.04B91 W/m2
04:59 47.9 °F 43.61 °F 29.88 in Calm     85% 0 in WeatherCatV3.04B91 W/m2
05:04 47.7 °F 43.41 °F 29.88 in Calm     85% 0 in WeatherCatV3.04B91 W/m2
05:09 47.6 °F 43.62 °F 29.88 in Calm     86% 0 in WeatherCatV3.04B91 W/m2
05:14 47.3 °F 43.33 °F 29.88 in Calm     86% 0 in WeatherCatV3.04B91 W/m2
05:19 47.3 °F 43.63 °F 29.88 in Calm     87% 0 in WeatherCatV3.04B91 W/m2
05:24 47.1 °F 43.43 °F 29.88 in Calm     87% 0 in WeatherCatV3.04B91 W/m2
05:29 47 °F 43.33 °F 29.88 in Calm     87% 0 in WeatherCatV3.04B91 W/m2
05:34 47 °F 43.33 °F 29.88 in Calm     87% 0 in WeatherCatV3.04B91 W/m2
05:39 46.8 °F 43.44 °F 29.88 in Calm     88% 0 in WeatherCatV3.04B91 W/m2
05:44 46.8 °F 43.44 °F 29.88 in Calm     88% 0 in WeatherCatV3.04B91 W/m2
05:49 46.8 °F 43.44 °F 29.88 in Calm     88% 0 in WeatherCatV3.04B91 W/m2
05:54 46.8 °F 43.44 °F 29.88 in Calm     88% 0 in WeatherCatV3.04B91 W/m2
05:59 46.7 °F 43.34 °F 29.88 in Calm     88% 0 in WeatherCatV3.04B91 W/m2
06:04 46.7 °F 43.34 °F 29.88 in Calm     88% 0 in WeatherCatV3.04B91 W/m2
06:09 46.7 °F 43.63 °F 29.88 in Calm     89% 0 in WeatherCatV3.04B91 W/m2
06:14 46.8 °F 43.73 °F 29.89 in Calm     89% 0 in WeatherCatV3.04B91 W/m2
06:19 47 °F 43.93 °F 29.89 in Calm     89% 0 in WeatherCatV3.04B91 W/m2
06:24 47.4 °F 44.32 °F 29.89 in Calm     89% 0 in WeatherCatV3.04B91 W/m2
06:29 47.7 °F 44.32 °F 29.90 in Calm     88% 0 in WeatherCatV3.04B91 W/m2
06:34 48 °F 44.62 °F 29.90 in Calm     88% 0 in WeatherCatV3.04B91 W/m2
06:39 48.3 °F 44.91 °F 29.90 in Calm     88% 0 in WeatherCatV3.04B91 W/m2
06:44 48.6 °F 44.91 °F 29.92 in Calm     87% 0 in WeatherCatV3.04B91 W/m2
06:49 48.9 °F 45.2 °F 29.92 in Calm     87% 0 in WeatherCatV3.04B91 W/m2
06:54 49.2 °F 45.19 °F 29.92 in Calm     86% 0 in WeatherCatV3.04B91 W/m2
06:59 49.4 °F 45.39 °F 29.91 in Calm     86% 0 in WeatherCatV3.04B91 W/m2
07:04 49.6 °F 45.59 °F 29.91 in Calm     86% 0 in WeatherCatV3.04B91 W/m2
07:09 50.1 °F 46.08 °F 29.91 in Calm     86% 0 in WeatherCatV3.04B91 W/m2
07:14 50.5 °F 46.47 °F 29.92 in Calm     86% 0 in WeatherCatV3.04B91 W/m2
07:19 51 °F 46.65 °F 29.92 in Calm     85% 0 in WeatherCatV3.04B91 W/m2
07:24 51.3 °F 46.63 °F 29.92 in Calm     84% 0 in WeatherCatV3.04B91 W/m2
07:29 52 °F 47.32 °F 29.93 in Calm     84% 0 in WeatherCatV3.04B91 W/m2
07:34 52.8 °F 47.78 °F 29.93 in Calm     83% 0 in WeatherCatV3.04B91 W/m2
07:39 53.2 °F 47.52 °F 29.93 in Calm     81% 0 in WeatherCatV3.04B91 W/m2
07:44 53.6 °F 47.58 °F 29.95 in Calm     80% 0 in WeatherCatV3.04B91 W/m2
07:49 53.5 °F 47.15 °F 29.95 in Calm     79% 0 in WeatherCatV3.04B91 W/m2
07:54 53.6 °F 46.91 °F 29.95 in Calm     78% 0 in WeatherCatV3.04B91 W/m2
07:59 54.1 °F 47.39 °F 29.94 in Calm     78% 0 in WeatherCatV3.04B91 W/m2
08:04 54.4 °F 47.34 °F 29.94 in Calm     77% 0 in WeatherCatV3.04B91 W/m2
08:09 54.8 °F 47.73 °F 29.94 in Calm     77% 0 in WeatherCatV3.04B91 W/m2
08:14 55.6 °F 48.15 °F 29.94 in Calm     76% 0 in WeatherCatV3.04B91 W/m2
08:19 55.7 °F 47.18 °F 29.94 in Calm     73% 0 in WeatherCatV3.04B91 W/m2
08:24 55.7 °F 46.81 °F 29.94 in Calm     72% 0 in WeatherCatV3.04B91 W/m2
08:29 55.6 °F 46.72 °F 29.95 in Calm   1 mph 72% 0 in WeatherCatV3.04B91 W/m2
08:34 55.7 °F 46.81 °F 29.95 in Calm     72% 0 in WeatherCatV3.04B91 W/m2
08:39 56 °F 47.1 °F 29.95 in Calm     72% 0 in WeatherCatV3.04B91 W/m2
08:44 56 °F 46.73 °F 29.97 in Calm     71% 0 in WeatherCatV3.04B91 W/m2
08:49 56 °F 46.73 °F 29.97 in Calm     71% 0 in WeatherCatV3.04B91 W/m2
08:54 56 °F 47.1 °F 29.97 in Calm     72% 0 in WeatherCatV3.04B91 W/m2
08:59 55.9 °F 46.63 °F 29.97 in Calm     71% 0 in WeatherCatV3.04B91 W/m2
09:04 56 °F 46.73 °F 29.97 in Calm     71% 0 in WeatherCatV3.04B91 W/m2
09:09 56.2 °F 46.92 °F 29.97 in Calm     71% 0 in WeatherCatV3.04B91 W/m2
09:14 56.3 °F 47.02 °F 29.97 in Calm     71% 0 in WeatherCatV3.04B91 W/m2
09:19 56.3 °F 46.64 °F 29.97 in Calm     70% 0 in WeatherCatV3.04B91 W/m2
09:24 56.6 °F 46.93 °F 29.97 in Calm     70% 0 in WeatherCatV3.04B91 W/m2
09:29 56.9 °F 46.83 °F 29.98 in Calm     69% 0 in WeatherCatV3.04B91 W/m2
09:34 57 °F 46.54 °F 29.98 in Calm     68% 0 in WeatherCatV3.04B91 W/m2
09:39 57.3 °F 46.83 °F 29.98 in Calm     68% 0 in WeatherCatV3.04B91 W/m2
09:44 57.3 °F 46.44 °F 29.98 in Calm     67% 0 in WeatherCatV3.04B91 W/m2
09:49 57.3 °F 45.64 °F 29.98 in Calm     65% 0 in WeatherCatV3.04B91 W/m2
09:54 57.5 °F 45.42 °F 29.98 in Calm     64% 0 in WeatherCatV3.04B91 W/m2
09:59 57.6 °F 45.92 °F 29.98 in Calm     65% 0 in WeatherCatV3.04B91 W/m2
10:04 57.8 °F 46.11 °F 29.98 in Calm     65% 0 in WeatherCatV3.04B91 W/m2
10:09 57.6 °F 45.92 °F 29.98 in Calm     65% 0 in WeatherCatV3.04B91 W/m2
10:14 58.1 °F 46.8 °F 29.98 in Calm     66% 0 in WeatherCatV3.04B91 W/m2
10:19 58.6 °F 46.87 °F 29.98 in Calm   1 mph 65% 0 in WeatherCatV3.04B91 W/m2
10:24 58.9 °F 47.15 °F 29.98 in Calm     65% 0 in WeatherCatV3.04B91 W/m2
10:29 59 °F 46.42 °F 29.98 in Calm     63% 0 in WeatherCatV3.04B91 W/m2
10:34 59.3 °F 46.28 °F 29.98 in Calm     62% 0 in WeatherCatV3.04B91 W/m2
10:39 59.8 °F 47.18 °F 29.98 in Calm     63% 0 in WeatherCatV3.04B91 W/m2
10:44 60.1 °F 46.6 °F 29.97 in Calm     61% 0 in WeatherCatV3.04B91 W/m2
10:49 60.4 °F 47.32 °F 29.97 in Calm     62% 0 in WeatherCatV3.04B91 W/m2
10:54 60.5 °F 47.41 °F 29.97 in Calm     62% 0 in WeatherCatV3.04B91 W/m2
10:59 60.7 °F 46.73 °F 29.97 in Calm     60% 0 in WeatherCatV3.04B91 W/m2
11:04 60.4 °F 46 °F 29.97 in Calm     59% 0 in WeatherCatV3.04B91 W/m2
11:09 60.4 °F 46 °F 29.97 in Calm     59% 0 in WeatherCatV3.04B91 W/m2
11:14 60.5 °F 46.1 °F 29.97 in Calm   2 mph 59% 0 in WeatherCatV3.04B91 W/m2
11:19 60.9 °F 46.02 °F 29.97 in Calm     58% 0 in WeatherCatV3.04B91 W/m2
11:24 61.3 °F 46.39 °F 29.97 in Calm     58% 0 in WeatherCatV3.04B91 W/m2
11:29 61.6 °F 46.67 °F 29.97 in Calm     58% 0 in WeatherCatV3.04B91 W/m2
11:34 62 °F 47.05 °F 29.97 in Calm     58% 0 in WeatherCatV3.04B91 W/m2
11:39 62.3 °F 46.87 °F 29.97 in Calm     57% 0 in WeatherCatV3.04B91 W/m2
11:44 62.6 °F 47.61 °F 29.97 in SE 1 mph 2 mph 58% 0 in WeatherCatV3.04B91 W/m2
11:49 62.4 °F 46.49 °F 29.97 in Calm     56% 0 in WeatherCatV3.04B91 W/m2
11:54 62.6 °F 47.15 °F 29.97 in Calm   4 mph 57% 0 in WeatherCatV3.04B91 W/m2
11:59 62.7 °F 46.77 °F 29.97 in Calm   2 mph 56% 0 in WeatherCatV3.04B91 W/m2
12:04 62.9 °F 46.96 °F 29.97 in Calm   3 mph 56% 0 in WeatherCatV3.04B91 W/m2
12:09 63.1 °F 46.18 °F 29.97 in Calm     54% 0 in WeatherCatV3.04B91 W/m2
12:14 63.4 °F 47.9 °F 29.96 in Calm     57% 0 in WeatherCatV3.04B91 W/m2
12:19 63.7 °F 47.22 °F 29.96 in Calm     55% 0 in WeatherCatV3.04B91 W/m2
12:24 64.2 °F 47.2 °F 29.96 in Calm     54% 0 in WeatherCatV3.04B91 W/m2
12:29 64.5 °F 46.98 °F 29.96 in Calm     53% 0 in WeatherCatV3.04B91 W/m2
12:34 64.8 °F 46.24 °F 29.96 in Calm     51% 0 in WeatherCatV3.04B91 W/m2
12:39 65 °F 45.9 °F 29.96 in Calm     50% 0 in WeatherCatV3.04B91 W/m2
12:44 65.2 °F 45.01 °F 29.96 in Calm     48% 0 in WeatherCatV3.04B91 W/m2
12:49 65.2 °F 45.55 °F 29.96 in SSE 1 mph 1 mph 49% 0 in WeatherCatV3.04B91 W/m2
12:54 65.5 °F 46.88 °F 29.96 in Calm     51% 0 in WeatherCatV3.04B91 W/m2
12:59 66 °F 46.28 °F 29.95 in Calm   1 mph 49% 0 in WeatherCatV3.04B91 W/m2
13:04 66.1 °F 47.95 °F 29.95 in Calm   1 mph 52% 0 in WeatherCatV3.04B91 W/m2
13:09 66.6 °F 47.37 °F 29.95 in Calm     50% 0 in WeatherCatV3.04B91 W/m2
13:14 66.8 °F 47.55 °F 29.95 in Calm   1 mph 50% 0 in WeatherCatV3.04B91 W/m2
13:19 67.1 °F 46.19 °F 29.95 in Calm   2 mph 47% 0 in WeatherCatV3.04B91 W/m2
13:24 67.3 °F 45.8 °F 29.95 in Calm   1 mph 46% 0 in WeatherCatV3.04B91 W/m2
13:29 67.6 °F 45.49 °F 29.95 in Calm     45% 0 in WeatherCatV3.04B91 W/m2
13:34 67.1 °F 46.19 °F 29.95 in Calm   2 mph 47% 0 in WeatherCatV3.04B91 W/m2
13:39 66.8 °F 47.02 °F 29.95 in Calm   1 mph 49% 0 in WeatherCatV3.04B91 W/m2
13:44 66.9 °F 46.56 °F 29.95 in Calm     48% 0 in WeatherCatV3.04B91 W/m2
13:49 66.3 °F 46.01 °F 29.95 in Calm   3 mph 48% 0 in WeatherCatV3.04B91 W/m2
13:54 66.1 °F 46.91 °F 29.95 in Calm     50% 0 in WeatherCatV3.04B91 W/m2
13:59 66.3 °F 47.62 °F 29.95 in Calm     51% 0 in WeatherCatV3.04B91 W/m2
14:04 66.6 °F 45.73 °F 29.95 in Calm     47% 0 in WeatherCatV3.04B91 W/m2
14:09 66.9 °F 44.27 °F 29.95 in Calm     44% 0 in WeatherCatV3.04B91 W/m2
14:14 67.4 °F 44.12 °F 29.94 in Calm   1 mph 43% 0 in WeatherCatV3.04B91 W/m2
14:19 67.8 °F 44.48 °F 29.94 in Calm   2 mph 43% 0 in WeatherCatV3.04B91 W/m2
14:24 67.4 °F 44.12 °F 29.94 in Calm     43% 0 in WeatherCatV3.04B91 W/m2
14:29 66.9 °F 42.43 °F 29.92 in Calm   3 mph 41% 0 in WeatherCatV3.04B91 W/m2
14:34 66.9 °F 43.05 °F 29.92 in Calm     42% 0 in WeatherCatV3.04B91 W/m2
14:39 66.9 °F 43.05 °F 29.92 in Calm     42% 0 in WeatherCatV3.04B91 W/m2
14:44 67.1 °F 43.23 °F 29.94 in Calm     42% 0 in WeatherCatV3.04B91 W/m2
14:49 67.3 °F 42.78 °F 29.94 in Calm     41% 0 in WeatherCatV3.04B91 W/m2
14:54 67.6 °F 46.07 °F 29.94 in Calm   4 mph 46% 0 in WeatherCatV3.04B91 W/m2
14:59 67.4 °F 44.72 °F 29.93 in Calm     44% 0 in WeatherCatV3.04B91 W/m2
15:04 67.6 °F 45.49 °F 29.93 in Calm   2 mph 45% 0 in WeatherCatV3.04B91 W/m2
15:09 67.6 °F 46.07 °F 29.93 in Calm     46% 0 in WeatherCatV3.04B91 W/m2
15:14 67.6 °F 45.49 °F 29.94 in Calm     45% 0 in WeatherCatV3.04B91 W/m2
15:19 67.6 °F 47.2 °F 29.94 in Calm     48% 0 in WeatherCatV3.04B91 W/m2
15:24 67.4 °F 47.02 °F 29.94 in Calm     48% 0 in WeatherCatV3.04B91 W/m2
15:29 67.3 °F 47.48 °F 29.93 in Calm     49% 0 in WeatherCatV3.04B91 W/m2
15:34 67.3 °F 46.93 °F 29.93 in Calm     48% 0 in WeatherCatV3.04B91 W/m2
15:39 67.3 °F 46.93 °F 29.93 in Calm     48% 0 in WeatherCatV3.04B91 W/m2
15:44 67.3 °F 46.37 °F 29.93 in Calm   6 mph 47% 0 in WeatherCatV3.04B91 W/m2
15:49 67.4 °F 47.57 °F 29.93 in Calm     49% 0 in WeatherCatV3.04B91 W/m2
15:54 67.1 °F 46.19 °F 29.93 in Calm   2 mph 47% 0 in WeatherCatV3.04B91 W/m2
15:59 66.8 °F 45.91 °F 29.96 in NNE 1 mph 2 mph 47% 0 in WeatherCatV3.04B91 W/m2
16:04 66.6 °F 45.73 °F 29.96 in Calm     47% 0 in WeatherCatV3.04B91 W/m2
16:09 66.6 °F 46.83 °F 29.96 in Calm     49% 0 in WeatherCatV3.04B91 W/m2
16:14 66.4 °F 47.19 °F 30.01 in Calm     50% 0 in WeatherCatV3.04B91 W/m2
16:19 66.3 °F 47.09 °F 30.01 in Calm     50% 0 in WeatherCatV3.04B91 W/m2
16:24 66 °F 45.18 °F 30.01 in Calm     47% 0 in WeatherCatV3.04B91 W/m2
16:29 65.8 °F 47.16 °F 30.04 in Calm   1 mph 51% 0 in WeatherCatV3.04B91 W/m2
16:34 64.7 °F 49.11 °F 30.04 in Calm     57% 0 in WeatherCatV3.04B91 W/m2
16:39 63.1 °F 48.98 °F 30.04 in Calm   3 mph 60% 0.1 in WeatherCatV3.04B91 W/m2
16:44 61.8 °F 49.91 °F 29.98 in Calm     65% 0.09 in WeatherCatV3.04B91 W/m2
16:49 60.5 °F 49.48 °F 29.98 in NE 6 mph 14 mph 67% 0.07 in WeatherCatV3.04B91 W/m2
16:54 59.3 °F 49.89 °F 29.98 in NE 5 mph 13 mph 71% 0.12 in WeatherCatV3.04B91 W/m2
16:59 59 °F 51.08 °F 29.89 in Calm   1 mph 75% 0.07 in WeatherCatV3.04B91 W/m2
17:04 58.6 °F 51.76 °F 29.89 in Calm   5 mph 78% 0.04 in WeatherCatV3.04B91 W/m2
17:09 58.7 °F 52.54 °F 29.89 in Calm   1 mph 80% 0 in WeatherCatV3.04B91 W/m2
17:14 59.2 °F 53.37 °F 29.90 in Calm   4 mph 81% 0 in WeatherCatV3.04B91 W/m2
17:19 59.3 °F 53.47 °F 29.90 in Calm     81% 0 in WeatherCatV3.04B91 W/m2
17:24 59.5 °F 54 °F 29.90 in Calm     82% 0 in WeatherCatV3.04B91 W/m2
17:29 59.8 °F 54.29 °F 29.93 in Calm     82% 0 in WeatherCatV3.04B91 W/m2
17:34 59.9 °F 54.05 °F 29.93 in Calm     81% 0 in WeatherCatV3.04B91 W/m2
17:39 60.1 °F 53.91 °F 29.93 in Calm     80% 0 in WeatherCatV3.04B91 W/m2
17:44 60.2 °F 54 °F 29.92 in NE 4 mph 5 mph 80% 0 in WeatherCatV3.04B91 W/m2
17:49 60.1 °F 53.56 °F 29.92 in Calm   3 mph 79% 0 in WeatherCatV3.04B91 W/m2
17:54 60.2 °F 53.66 °F 29.92 in Calm   3 mph 79% 0 in WeatherCatV3.04B91 W/m2
17:59 60.2 °F 53.31 °F 29.91 in Calm   3 mph 78% 0 in WeatherCatV3.04B91 W/m2
18:04 60.4 °F 53.15 °F 29.91 in Calm   5 mph 77% 0 in WeatherCatV3.04B91 W/m2
18:09 60.4 °F 53.15 °F 29.91 in NNE 4 mph 5 mph 77% 0 in WeatherCatV3.04B91 W/m2
18:14 60.4 °F 52.8 °F 29.90 in Calm     76% 0 in WeatherCatV3.04B91 W/m2
18:19 60.5 °F 52.53 °F 29.90 in Calm   3 mph 75% 0 in WeatherCatV3.04B91 W/m2
18:24 60.7 °F 52.73 °F 29.90 in Calm     75% 0 in WeatherCatV3.04B91 W/m2
18:29 60.7 °F 52.73 °F 29.89 in Calm     75% 0 in WeatherCatV3.04B91 W/m2
18:34 60.5 °F 52.17 °F 29.89 in Calm   1 mph 74% 0 in WeatherCatV3.04B91 W/m2
18:39 60.5 °F 51.8 °F 29.89 in Calm     73% 0 in WeatherCatV3.04B91 W/m2
18:44 60.7 °F 51.99 °F 29.88 in Calm     73% 0 in WeatherCatV3.04B91 W/m2
18:49 60.7 °F 52.36 °F 29.88 in Calm     74% 0 in WeatherCatV3.04B91 W/m2
18:54 60.7 °F 51.62 °F 29.88 in ENE 1 mph 8 mph 72% 0 in WeatherCatV3.04B91 W/m2
18:59 60.7 °F 51.62 °F 29.88 in Calm     72% 0 in WeatherCatV3.04B91 W/m2
19:04 60.7 °F 51.62 °F 29.88 in Calm   1 mph 72% 0 in WeatherCatV3.04B91 W/m2
19:09 60.5 °F 51.42 °F 29.88 in Calm     72% 0 in WeatherCatV3.04B91 W/m2
19:14 60.5 °F 51.05 °F 29.87 in Calm     71% 0 in WeatherCatV3.04B91 W/m2
19:19 60.5 °F 50.66 °F 29.87 in Calm     70% 0 in WeatherCatV3.04B91 W/m2
19:24 60.5 °F 50.27 °F 29.87 in Calm   3 mph 69% 0 in WeatherCatV3.04B91 W/m2
19:29 60.7 °F 50.47 °F 29.86 in Calm     69% 0 in WeatherCatV3.04B91 W/m2
19:34 60.7 °F 50.47 °F 29.86 in Calm     69% 0 in WeatherCatV3.04B91 W/m2
19:39 60.5 °F 49.88 °F 29.86 in Calm   4 mph 68% 0 in WeatherCatV3.04B91 W/m2
19:44 60.5 °F 49.88 °F 29.84 in NE 2 mph 3 mph 68% 0 in WeatherCatV3.04B91 W/m2
19:49 60.4 °F 49.79 °F 29.84 in Calm   2 mph 68% 0 in WeatherCatV3.04B91 W/m2
19:54 60.4 °F 49.79 °F 29.84 in Calm   3 mph 68% 0 in WeatherCatV3.04B91 W/m2
19:59 60.4 °F 50.18 °F 29.83 in Calm   5 mph 69% 0 in WeatherCatV3.04B91 W/m2
20:04 60.4 °F 50.18 °F 29.83 in Calm     69% 0 in WeatherCatV3.04B91 W/m2
20:09 60.4 °F 50.57 °F 29.83 in East 3 mph 5 mph 70% 0 in WeatherCatV3.04B91 W/m2
20:14 60.4 °F 50.95 °F 29.82 in Calm     71% 0 in WeatherCatV3.04B91 W/m2
20:19 60.2 °F 50.76 °F 29.82 in Calm   1 mph 71% 0 in WeatherCatV3.04B91 W/m2
20:24 60.2 °F 51.14 °F 29.82 in Calm     72% 0 in WeatherCatV3.04B91 W/m2
20:29 60.2 °F 51.14 °F 29.81 in Calm   1 mph 72% 0 in WeatherCatV3.04B91 W/m2
20:34 60.2 °F 51.14 °F 29.81 in Calm   5 mph 72% 0 in WeatherCatV3.04B91 W/m2
20:39 60.4 °F 51.33 °F 29.81 in ENE 1 mph 1 mph 72% 0 in WeatherCatV3.04B91 W/m2
20:44 60.4 °F 51.33 °F 29.81 in NE 3 mph 5 mph 72% 0 in WeatherCatV3.04B91 W/m2
20:49 60.5 °F 51.42 °F 29.81 in NNE 4 mph 4 mph 72% 0 in WeatherCatV3.04B91 W/m2
20:54 60.5 °F 51.42 °F 29.81 in Calm   1 mph 72% 0 in WeatherCatV3.04B91 W/m2
20:59 60.5 °F 51.42 °F 29.81 in Calm   5 mph 72% 0 in WeatherCatV3.04B91 W/m2
21:04 60.5 °F 51.42 °F 29.81 in Calm     72% 0 in WeatherCatV3.04B91 W/m2
21:09 60.7 °F 51.62 °F 29.81 in Calm     72% 0 in WeatherCatV3.04B91 W/m2
21:14 60.7 °F 51.62 °F 29.82 in Calm   3 mph 72% 0 in WeatherCatV3.04B91 W/m2
21:19 60.7 °F 51.24 °F 29.82 in Calm   3 mph 71% 0 in WeatherCatV3.04B91 W/m2
21:24 60.9 °F 51.43 °F 29.82 in Calm     71% 0 in WeatherCatV3.04B91 W/m2
21:29 61 °F 51.53 °F 29.86 in Calm     71% 0 in WeatherCatV3.04B91 W/m2
21:34 61 °F 51.53 °F 29.86 in Calm     71% 0 in WeatherCatV3.04B91 W/m2
21:39 61 °F 51.9 °F 29.86 in Calm     72% 0 in WeatherCatV3.04B91 W/m2
21:44 60.9 °F 52.55 °F 29.87 in Calm     74% 0.93 in WeatherCatV3.04B91 W/m2
21:49 60.2 °F 52.96 °F 29.87 in Calm     77% 0.26 in WeatherCatV3.04B91 W/m2
21:54 58.9 °F 53.08 °F 29.87 in Calm   8 mph 81% 0.21 in WeatherCatV3.04B91 W/m2
21:59 58.1 °F 52.96 °F 29.79 in Calm   4 mph 83% 0.1 in WeatherCatV3.04B91 W/m2
22:04 58 °F 53.51 °F 29.79 in Calm     85% 0.06 in WeatherCatV3.04B91 W/m2
22:09 57.8 °F 53.64 °F 29.79 in Calm     86% 0.04 in WeatherCatV3.04B91 W/m2
22:14 57.6 °F 53.76 °F 29.82 in Calm     87% 0 in WeatherCatV3.04B91 W/m2
22:19 57.6 °F 54.07 °F 29.82 in Calm     88% 0 in WeatherCatV3.04B91 W/m2
22:24 57.6 °F 54.38 °F 29.82 in Calm     89% 0 in WeatherCatV3.04B91 W/m2
22:29 57.5 °F 54.28 °F 29.86 in Calm     89% 0 in WeatherCatV3.04B91 W/m2
22:34 57.5 °F 54.59 °F 29.86 in Calm     90% 0.09 in WeatherCatV3.04B91 W/m2
22:39 57.2 °F 54.29 °F 29.86 in Calm   2 mph 90% 0.06 in WeatherCatV3.04B91 W/m2
22:44 57 °F 54.4 °F 29.82 in Calm     91% 0.06 in WeatherCatV3.04B91 W/m2
22:49 57.2 °F 54.59 °F 29.82 in Calm     91% 0.09 in WeatherCatV3.04B91 W/m2
22:54 57.2 °F 54.89 °F 29.82 in ENE 2 mph 6 mph 92% 0.07 in WeatherCatV3.04B91 W/m2
22:59 57 °F 54.7 °F 29.82 in Calm   4 mph 92% 0.05 in WeatherCatV3.04B91 W/m2
23:04 57 °F 54.7 °F 29.82 in Calm   1 mph 92% 0.2 in WeatherCatV3.04B91 W/m2
23:09 56.9 °F 54.6 °F 29.82 in Calm   4 mph 92% 0.14 in WeatherCatV3.04B91 W/m2
23:14 56.9 °F 54.89 °F 29.86 in Calm   4 mph 93% 0.09 in WeatherCatV3.04B91 W/m2
23:19 56.7 °F 54.7 °F 29.86 in ENE 3 mph 4 mph 93% 0.14 in WeatherCatV3.04B91 W/m2
23:24 56.5 °F 54.5 °F 29.86 in Calm   5 mph 93% 0.34 in WeatherCatV3.04B91 W/m2
23:29 56.3 °F 54.3 °F 29.84 in Calm   1 mph 93% 0.14 in WeatherCatV3.04B91 W/m2
23:34 56.3 °F 54.3 °F 29.84 in ENE 1 mph 2 mph 93% 0.12 in WeatherCatV3.04B91 W/m2
23:39 56.2 °F 54.2 °F 29.84 in NE 6 mph 6 mph 93% 0.09 in WeatherCatV3.04B91 W/m2
23:44 56.2 °F 54.49 °F 29.84 in NE 1 mph 7 mph 94% 0.21 in WeatherCatV3.04B91 W/m2
23:49 56 °F 54.3 °F 29.84 in Calm     94% 0.25 in WeatherCatV3.04B91 W/m2
23:54 56 °F 54.3 °F 29.84 in Calm   1 mph 94% 0.28 in WeatherCatV3.04B91 W/m2
23:59 56 °F 54.3 °F 29.86 in Calm   4 mph 94% 0.95 in WeatherCatV3.04B91 W/m2
Bellevue, Nebraska, USA
Compliments of Weather Underground - 3.25 mb